This is the latest recevied weather packets stored in our database for station/object N8QQQ. If no packets are shown the sender has not sent any weather packets the latest 10 day(s).
| Time | Temp. | Humidity | Pressure | Rain* | Wind** | Luminosity | Snow |
|---|---|---|---|---|---|---|---|
| 1777648693 | 1.67° C | 73% | 1016.6 hPa | 0 mm | - | 117 W/m² | - |
| 1777648389 | 1.11° C | 75% | 1016.3 hPa | 0 mm | - | 126 W/m² | - |
| 1777648085 | 1.11° C | 74% | 1016.5 hPa | 0 mm | - | 142 W/m² | - |
| 1777647782 | 1.67° C | 76% | 1016.3 hPa | 0 mm | - | 114 W/m² | - |
| 1777647478 | 1.11° C | 76% | 1016.4 hPa | 0 mm | - | 97 W/m² | - |
| 1777646264 | 0.56° C | 78% | 1016.3 hPa | 0 mm | - | 97 W/m² | - |
| 1777645961 | 0.56° C | 78% | 1016.4 hPa | 0 mm | - | 84 W/m² | - |
| 1777645658 | 0.56° C | 78% | 1016.4 hPa | 0 mm | - | 95 W/m² | - |
| 1777645354 | 0.56° C | 79% | 1016.4 hPa | 0 mm | - | 94 W/m² | - |
| 1777645049 | 0.56° C | 79% | 1016.3 hPa | 0 mm | - | 91 W/m² | - |
| 1777644747 | 0.56° C | 79% | 1016.3 hPa | 0 mm | - | 86 W/m² | - |
| 1777644444 | 0° C | 79% | 1016.4 hPa | 0 mm | - | 79 W/m² | - |
| 1777644141 | 0° C | 80% | 1016.6 hPa | 0 mm | - | 76 W/m² | - |
| 1777643836 | 0° C | 80% | 1016.3 hPa | 0 mm | - | 73 W/m² | - |
| 1777643534 | 0° C | 80% | 1016.5 hPa | 0 mm | - | 71 W/m² | - |
| 1777643231 | 0° C | 80% | 1016.3 hPa | 0 mm | - | 68 W/m² | - |
| 1777642928 | 0° C | 81% | 1016.2 hPa | 0 mm | - | 65 W/m² | - |
| 1777642624 | 0° C | 81% | 1016.4 hPa | 0 mm | - | 61 W/m² | - |
| 1777642321 | 0° C | 81% | 1016.4 hPa | 0 mm | - | 56 W/m² | - |
| 1777642018 | 0° C | 82% | 1016.3 hPa | 0 mm | - | 54 W/m² | - |
| 1777641713 | 0° C | 83% | 1016.4 hPa | 0 mm | - | 53 W/m² | - |
| 1777641409 | 0° C | 82% | 1016.3 hPa | 0 mm | - | 51 W/m² | - |
| 1777641104 | -0.56° C | 82% | 1016.1 hPa | 0 mm | - | 47 W/m² | - |
| 1777640800 | -0.56° C | 84% | 1016.2 hPa | 0 mm | - | 48 W/m² | - |
| 1777640498 | -0.56° C | 84% | 1016.3 hPa | 0 mm | - | 47 W/m² | - |
* Rain latest hour (hover to see other rain measurements)
** Current wind speed in m/s (hover to see current wind gust speed)